Tracking 19199 objects as of 25-Jun-2018
HD Live streaming from Space Station
objects crossing your sky now

MERIDIAN 3

Track MERIDIAN 3 now!
MERIDIAN 3 is classified as:


NORAD ID: 37212
Int'l Code: 2010-058A
Perigee: 1,555.4 km
Apogee: 38,816.4 km
Inclination: 63.5 °
Period: 717.8 minutes
Semi major axis: 26556 km
RCS: 24.3984 m2 (large)
Launch date: November 2, 2010
Source: Commonwealth of Independent States (former USSR) (CIS)
Launch site: PLESETSK MISSILE AND SPACE COMPLEX (PKMTR)

MERIDIAN 3 is a Russian military communications satellite.
aabbcc
Your satellite tracking list
Your tracking list is empty




NASA's NSSDC Master Catalog

Two Line Element Set (TLE):
1 37212U 10058A   18175.09792028 -.00000183  00000-0  10000-3 0  9995
2 37212  63.4700  28.8975 7015315 274.2321 345.0828  2.00602990 55973
Source of the keplerian elements: AFSPC